This is the latest recevied weather packets stored in our database for station/object 4S6DRJ-13. If no packets are shown the sender has not sent any weather packets the latest 10 day(s).
| Time | Temp. | Humidity | Pressure | Rain* | Wind** | Luminosity | Snow |
|---|---|---|---|---|---|---|---|
| 1788061663 | 30° C | 75% | 1010.9 hPa | 0 mm | 1.79 m/s, 269° | 537 W/m² | - |
| 1788061603 | 30° C | 75% | 1010.9 hPa | 0 mm | 1.79 m/s, 318° | 738 W/m² | - |
| 1788061541 | 30° C | 75% | 1010.9 hPa | 0 mm | 1.34 m/s, 296° | 340 W/m² | - |
| 1788061480 | 30° C | 75% | 1011 hPa | 0 mm | 1.34 m/s, 236° | 772 W/m² | - |
| 1788061419 | 30° C | 75% | 1011 hPa | 0 mm | 0.45 m/s, 197° | 754 W/m² | - |
| 1788061358 | 30° C | 75% | 1011.1 hPa | 0 mm | 0.89 m/s, 89° | 309 W/m² | - |
| 1788061297 | 30° C | 74% | 1011.1 hPa | 0 mm | 1.79 m/s, 40° | 269 W/m² | - |
| 1788061236 | 30° C | 74% | 1011.1 hPa | 0 mm | 1.79 m/s, 219° | 265 W/m² | - |
| 1788061175 | 30° C | 74% | 1011.1 hPa | 0 mm | 1.79 m/s, 225° | 410 W/m² | - |
| 1788061114 | 30° C | 75% | 1011.1 hPa | 0 mm | 1.79 m/s, 340° | 736 W/m² | - |
| 1788061053 | 30° C | 76% | 1011.1 hPa | 0 mm | 1.79 m/s, 295° | 800 W/m² | - |
| 1788060992 | 29.44° C | 76% | 1010.9 hPa | 0 mm | 0.89 m/s, 206° | 761 W/m² | - |
| 1788060931 | 29.44° C | 77% | 1011 hPa | 0 mm | 0.45 m/s, 348° | 848 W/m² | - |
| 1788060870 | 29.44° C | 75% | 1010.9 hPa | 0 mm | 2.68 m/s, 253° | 865 W/m² | - |
| 1788060809 | 29.44° C | 77% | 1010.9 hPa | 0 mm | 1.34 m/s, 8° | 832 W/m² | - |
| 1788060748 | 29.44° C | 77% | 1010.8 hPa | 0 mm | 0.45 m/s, 298° | 529 W/m² | - |
| 1788060687 | 29.44° C | 77% | 1010.9 hPa | 0 mm | 2.24 m/s, 312° | 825 W/m² | - |
| 1788060626 | 29.44° C | 77% | 1010.8 hPa | 0 mm | 2.68 m/s, 229° | 295 W/m² | - |
| 1788060566 | 29.44° C | 78% | 1010.8 hPa | 0 mm | 0.45 m/s, 190° | 799 W/m² | - |
| 1788060504 | 29.44° C | 78% | 1011 hPa | 0 mm | 0.89 m/s, 211° | 388 W/m² | - |
| 1788060443 | 29.44° C | 78% | 1010.8 hPa | 0 mm | 1.34 m/s, 124° | 828 W/m² | - |
| 1788060382 | 29.44° C | 78% | 1010.9 hPa | 0 mm | 1.79 m/s, 193° | 806 W/m² | - |
| 1788060321 | 29.44° C | 78% | 1010.9 hPa | 0 mm | 0.89 m/s, 271° | 318 W/m² | - |
| 1788060260 | 29.44° C | 77% | 1010.9 hPa | 0 mm | 2.68 m/s, 225° | 250 W/m² | - |
| 1788060199 | 29.44° C | 77% | 1011 hPa | 0 mm | 1.79 m/s, 350° | 265 W/m² | - |
* Rain latest hour (hover to see other rain measurements)
** Current wind speed in m/s (hover to see current wind gust speed)